Dewpoint
70 70 70 70 71 71 71 70 70 70 70 70 71 71 70 70 70 69 69 69 69 69 68 67 67 66 65 65 63 67 67 68
69 70 70 70 70 70 70 70 70 70 70 70 70 70 70 70 70 70 69 69 68 68 67 67 66 66 65 64 62 63 67 67
70 70 70 70 70 70 70 70 69 70 70 70 69 69 70 70 69 69 69 68 68 67 67 66 66 65 64 62 59 60 67 67
69 70 70 70 69 69 70 69 69 69 69 70 69 69 69 69 69 69 68 68 67 67 66 66 65 64 62 59 56 62 67 66
68 69 70 69 69 69 69 68 69 69 69 69 68 68 68 68 68 68 68 67 67 66 65 65 63 62 59 55 64 66 66 66
69 69 69 69 69 69 68 68 68 68 67 67 67 67 66 66 66 67 66 66 65 65 64 63 62 60 56 53 63 65 65 66
66 70 69 69 69 69 68 68 68 68 67 67 67 66 65 65 65 65 65 65 65 64 63 62 60 58 55 55 63 64 65 66
42 51 68 69 69 69 68 67 67 67 67 67 67 66 66 65 64 65 64 65 64 63 62 61 59 57 55 57 62 64 65 65
40 42 44 57 69 69 69 67 67 66 66 67 67 66 66 65 64 64 64 64 63 63 61 60 59 58 55 57 61 62 63 64
38 41 43 46 50 68 69 68 67 66 66 67 67 66 66 65 64 64 64 64 63 62 60 59 58 58 56 57 60 61 62 62
37 38 42 44 48 51 64 68 68 67 66 66 67 66 65 65 65 64 65 63 62 61 60 58 57 58 57 57 58 60 60 61
36 37 40 43 47 51 57 66 68 68 67 67 67 66 65 66 65 65 64 62 60 60 58 57 57 58 57 57 56 59 59 60
35 36 38 41 45 49 51 57 63 67 67 67 67 66 66 65 65 65 64 61 59 59 58 57 59 59 57 57 56 58 58 59
36 36 37 39 44 46 50 55 59 63 65 67 67 66 65 65 65 64 63 61 59 59 57 56 59 59 56 56 54 55 56 57
36 36 36 38 41 45 49 52 56 56 62 64 67 66 65 65 65 64 63 61 59 59 58 56 58 59 57 55 53 52 54 56
36 35 36 37 40 42 45 49 51 54 55 61 64 66 65 65 65 64 62 61 60 59 59 57 59 58 58 57 55 55 52 53
37 36 36 37 38 41 43 47 52 55 57 55 56 65 66 66 65 64 63 61 61 59 59 58 59 58 57 56 54 55 54 53
38 36 36 36 37 39 42 45 49 55 56 57 57 61 65 66 65 64 63 61 61 60 59 59 59 58 57 57 54 53 53 52
37 36 36 37 37 37 40 43 46 52 50 52 54 58 61 65 65 65 64 62 61 61 59 60 59 58 57 57 56 53 53 52
35 35 36 36 37 36 39 41 44 45 46 49 51 53 60 64 66 65 64 63 62 61 60 60 60 59 58 57 56 55 54 52
Wind_Speed
19 20 20 25 25 25 22 26 28 25 28 27 27 26 26 25 23 23 22 22 20 19 19 19 20 19 18 16 14 18 18 14
13 17 18 19 21 25 24 23 29 26 25 27 27 26 27 25 24 24 23 22 21 20 20 19 20 18 17 14 14 16 16 14
11 12 15 15 16 21 25 20 20 27 26 25 25 21 22 24 22 25 24 22 21 20 20 19 19 19 15 12 11 12 15 12
20 20 19 17 15 15 17 22 18 18 21 23 20 19 20 21 21 25 24 22 21 20 19 18 17 15 12 8 7 14 15 14
21 20 20 20 18 16 16 17 16 17 19 22 19 19 18 18 17 18 18 19 15 16 16 14 15 15 12 8 11 18 15 14
21 18 19 18 15 17 19 18 19 18 20 24 22 20 21 20 19 19 18 16 16 14 15 15 15 15 15 11 15 15 14 14
18 19 20 22 22 19 18 20 22 21 20 24 22 22 24 22 21 19 19 18 18 16 15 17 16 14 16 14 16 16 16 14
34 33 14 23 24 25 24 21 19 24 22 24 25 23 24 24 23 21 20 19 18 18 17 18 16 15 15 16 17 16 17 17
31 31 30 26 21 26 23 24 22 21 25 27 28 25 26 27 25 23 22 19 19 17 16 14 15 14 16 17 17 17 17 18
30 28 30 29 27 18 23 24 26 27 24 25 31 29 28 28 26 25 22 20 20 20 19 18 16 17 15 15 17 16 17 17
35 31 28 30 28 21 22 23 28 27 27 26 31 32 30 29 27 26 26 23 23 22 20 22 20 18 18 15 16 16 17 16
34 32 30 30 26 22 22 26 19 25 27 27 31 31 33 30 27 28 27 25 24 23 24 20 20 20 18 15 16 15 15 15
35 36 33 29 26 25 23 20 28 25 27 33 32 34 33 34 28 28 30 29 30 29 24 27 20 18 17 12 9 14 18 16
36 37 32 25 21 24 18 17 17 20 29 30 33 37 35 35 33 31 32 29 30 30 30 22 19 23 21 19 12 5 10 16
32 34 37 32 27 22 21 17 12 11 24 36 34 37 37 37 35 31 33 30 31 33 32 33 29 25 22 18 11 12 12 10
33 31 33 31 30 26 22 20 19 15 18 22 29 30 36 40 37 35 34 30 32 34 32 33 32 32 23 18 9 10 15 11
31 32 31 33 32 26 24 20 19 20 19 17 26 32 38 38 38 38 36 32 32 35 34 33 30 32 28 28 15 12 8 8
31 31 31 31 31 31 28 25 20 15 10 4 24 31 33 36 39 37 37 35 35 35 35 36 33 31 31 31 29 22 21 13
31 33 33 31 31 31 29 26 22 8 5 7 13 18 32 37 42 41 39 37 36 34 34 35 36 33 35 30 27 26 21 19
32 34 36 35 31 34 29 28 19 12 9 7 11 18 24 20 38 38 38 37 35 34 33 33 33 33 34 31 26 26 19 21
Wind_Direction
170 178 176 168 172 171 176 166 164 164 160 159 159 159 155 157 155 152 150 150 155 156 149 145 147 149 145 137 111 127 128 132
176 176 177 176 179 178 173 184 166 165 166 163 161 161 160 160 156 154 155 157 161 160 153 155 155 154 153 129 121 125 132 134
164 174 179 180 186 184 172 191 179 164 168 167 161 165 163 163 161 158 159 163 165 163 158 164 160 158 150 142 139 148 145 141
185 181 182 177 185 186 188 179 185 181 172 172 170 171 168 168 164 161 161 165 168 167 162 169 162 159 148 152 157 158 149 148
195 190 188 182 181 184 187 187 184 189 183 177 175 172 173 169 168 165 164 163 169 168 164 171 172 161 154 163 142 149 149 151
206 187 181 182 188 189 190 193 182 188 191 185 179 178 179 178 178 176 172 170 168 174 173 176 180 172 157 161 147 144 151 151
296 192 192 183 184 187 194 200 188 184 191 191 184 181 182 180 181 179 178 174 172 175 181 177 182 185 155 159 155 149 148 150
340 356 276 186 191 188 191 193 204 184 189 195 191 185 183 182 184 181 181 179 175 177 183 181 183 186 167 161 157 154 153 156
352 356 336 336 217 195 188 189 189 205 192 190 194 188 184 185 184 183 185 180 172 175 178 179 182 186 191 156 158 161 161 162
348 347 343 347 340 266 200 189 188 195 203 195 192 190 186 185 186 187 182 174 176 177 180 184 188 186 194 156 158 161 164 163
347 350 347 340 330 323 286 211 188 194 195 201 196 190 187 187 187 186 178 176 179 181 185 185 185 187 194 159 155 162 163 165
348 347 346 341 333 332 332 241 215 194 197 199 195 195 189 187 188 184 178 178 181 181 184 188 187 185 182 162 161 156 162 174
351 345 343 342 336 334 333 330 247 212 203 198 193 195 194 189 190 184 180 181 183 182 182 182 183 180 160 151 154 162 168 181
347 341 338 337 332 321 307 300 295 281 224 203 194 194 194 193 190 188 184 182 183 185 181 183 184 181 179 164 159 164 202 188
348 338 335 333 341 330 314 305 279 309 271 221 201 196 194 194 191 189 187 183 185 185 185 184 181 189 182 170 157 193 164 197
347 341 336 333 339 336 320 299 294 279 254 301 219 204 199 197 192 188 188 187 186 189 188 187 183 183 184 197 181 149 172 175
345 342 339 336 339 334 325 302 294 292 264 292 296 236 207 198 193 188 189 188 188 189 189 192 191 185 188 187 180 172 162 156
344 344 342 344 340 336 335 320 310 283 284 287 282 258 223 199 197 193 190 188 188 190 190 194 191 189 193 197 190 175 188 176
349 345 346 346 348 344 340 328 303 304 24 330 318 324 235 213 200 198 191 189 189 188 189 196 194 191 191 197 200 201 190 193
351 349 348 351 349 348 343 341 338 1 358 34 20 1 297 243 219 198 190 191 190 186 191 193 197 193 196 194 199 205 195 186